Estación de Combarbala

Ultimos registro cada 15 minutos 40
Estación Fecha / Hora Temperatura Humedad Lluvia Velocidad Dirección Radiación Presion
40 Combarbala 08-05-2026 09:45 18 21 0 0,5 79 339,4 909,8
39 Combarbala 08-05-2026 09:30 17,4 21,4 0 0 79 244,4 909,9
38 Combarbala 08-05-2026 09:15 16,6 23,5 0 0 97 269,4 909,7
37 Combarbala 08-05-2026 09:00 15,8 25,3 0 0,5 102 234,4 909,8
36 Combarbala 08-05-2026 08:45 16,7 25,9 0 0 105 248,1 910,1
35 Combarbala 08-05-2026 08:30 14,5 28,9 0 0 105 173,1 909,7
34 Combarbala 08-05-2026 08:15 13,7 29,3 0 0 105 116,9 909,8
33 Combarbala 08-05-2026 08:00 11,2 32,3 0 0 105 106,9 909,8
32 Combarbala 08-05-2026 07:45 10,3 33,2 0 0 105 26,9 909,8
31 Combarbala 08-05-2026 07:30 9,9 33,2 0 0 105 11,9 909,6
30 Combarbala 08-05-2026 07:15 9,8 34,7 0 0 105 5,6 909,5
29 Combarbala 08-05-2026 07:00 9,9 34,3 0 0 105 0,6 909,4
28 Combarbala 08-05-2026 06:45 10,5 33,6 0 0 105 0,6 909,5
27 Combarbala 08-05-2026 06:30 10,4 34,7 0 0 105 0,6 909,4
26 Combarbala 08-05-2026 06:15 10,3 35,2 0 0 105 0,6 909,3
25 Combarbala 08-05-2026 06:00 10,5 35,4 0 0 105 0,6 909,1
24 Combarbala 08-05-2026 05:45 9,9 34,8 0 0 105 0,6 909,2
23 Combarbala 08-05-2026 05:30 10,2 34,1 0 0 105 0,6 909,4
22 Combarbala 08-05-2026 05:15 10,2 33,6 0 0 105 0,6 909,5
21 Combarbala 08-05-2026 05:00 10,9 32,1 0 0 105 0,6 909,4
20 Combarbala 08-05-2026 04:45 11,2 31,4 0 0,5 105 0,6 909,2
19 Combarbala 08-05-2026 04:30 11,4 31,3 0 0 105 0,6 909,2
18 Combarbala 08-05-2026 04:15 11,1 32,8 0 0 105 0,6 909,2
17 Combarbala 08-05-2026 04:00 10,5 34,2 0 0 105 0,6 909,4
16 Combarbala 08-05-2026 03:45 10,8 34,2 0 0 105 0,6 909,4
15 Combarbala 08-05-2026 03:30 11,4 34 0 0 105 0,6 909,6
14 Combarbala 08-05-2026 03:15 11,5 34,6 0 0 105 0,6 909,8
13 Combarbala 08-05-2026 03:00 11,9 34,1 0 0 107 0,6 909,8
12 Combarbala 08-05-2026 02:45 12,2 34,8 0 0 107 0,6 909,9
11 Combarbala 08-05-2026 02:30 12,4 36 0 0 108 0,6 910,2
10 Combarbala 08-05-2026 02:15 12,2 38,5 0 0 83 0,6 910,4
9 Combarbala 08-05-2026 02:00 11,8 39,8 0 0,5 66 0,6 910,3
8 Combarbala 08-05-2026 01:45 11,7 40,3 0 0 358 0,6 910,1
7 Combarbala 08-05-2026 01:30 11,9 41,1 0 0,5 32 0,6 910,4
6 Combarbala 08-05-2026 01:15 11,9 41 0 0 52 0,6 910,7
5 Combarbala 08-05-2026 01:00 11,9 41,4 0 0 52 0,6 910,6
4 Combarbala 08-05-2026 00:45 11,6 41,1 0 0 32 0,6 910,9
3 Combarbala 08-05-2026 00:30 11,1 42,3 0 0,5 76 0,6 911
2 Combarbala 08-05-2026 00:15 11,8 42,1 0 0 86 0,6 910,8
1 Combarbala 08-05-2026 00:00 11,5 43,2 0 0,5 76 0,6 911